Location: Campillo
(40.8621°N, 4.2488°W)
Time: 05:38:35
(UTC+00:00)

X-37B - Pass Details

Date: 06 August 2021
Orbit: 381 x 393 km, 45.0° (Epoch: 29 August)

Event Time Altitude Azimuth Distance (km) Brightness Sun altitude
Exits shadow 03:29:08 35° 304° (NW) 639 1.5 -18.1°
Maximum altitude 03:29:58 45° 349° (NNW) 531 1.4 -18.0°
Drops below altitude 10° 03:33:01 10° 63° (ENE) 1,398 4.6 -17.6°
Sets 03:35:08 0° 70° (ENE) 2,252 5.7 -17.3°
